Location: Unspecified
(64.9000°N, 0.0000°E)
Time: 21:30:48
(UTC+00:00)

Transit 2A Rocket - Pass Details

Date: 24 June 2019
Orbit: 588 x 915 km, 66.7° (Epoch: 18 July)

Event Time Altitude Azimuth Distance (km) Brightness Sun altitude
Rises 12:31:57 0° 248° (WSW) 3,524 8.7 48.2°
Reaches altitude 10° 12:34:32 10° 248° (WSW) 2,561 8.2 48.2°
Maximum altitude 12:40:31 88° 338° (NNW) 859 6.2 48.0°
Drops below altitude 10° 12:46:04 10° 70° (ENE) 2,381 7.4 47.9°
Sets 12:48:23 0° 71° (ENE) 3,261 8.0 47.8°
